Simultaneous Nadir Overpasses (SNOs) Predictions

Prediction of SNOs between AURA and NPP Satellite Orbit:

Table of predicted SNOs for the next 14.0 days since TLE Epoch: 1/9/2021
Index Date (AURA) Time (AURA) Lat,Lon (AURA) SZA (AURA ) Date (NPP) Time (NPP) Lat,Lon (NPP) SZA (NPP ) Distance(km) Time Diff (sec)
1 01/09/2021 04:30:43 -79.78,-168.90 65.99 01/09/2021 04:31:45 -79.77,-169.05 66.01 3.16 62
2 01/11/2021 19:08:29 -79.38, -31.16 65.76 01/11/2021 19:07:23 -79.37, -31.28 65.68 2.75 66
3 01/11/2021 19:57:47 79.67, 138.54 113.82 01/11/2021 19:57:58 79.67, 138.54 113.81 0.26 11
4 01/14/2021 11:24:54 -79.50, 85.54 66.33 01/14/2021 11:24:15 -79.49, 85.43 66.28 2.56 39
5 01/14/2021 12:14:13 79.75,-105.00 113.30 01/14/2021 12:14:51 79.75,-104.99 113.27 0.50 38
6 01/17/2021 03:41:20 -79.57,-158.03 66.90 01/17/2021 03:41:08 -79.57,-158.12 66.87 1.89 12
7 01/17/2021 04:30:38 79.85, 11.71 112.68 01/17/2021 04:31:43 79.86, 11.77 112.63 1.15 65
8 01/19/2021 19:08:21 79.52, 149.83 112.69 01/19/2021 19:07:18 79.52, 149.96 112.71 2.77 63
9 01/19/2021 19:57:44 -79.68, -41.36 67.56 01/19/2021 19:57:59 -79.68, -41.40 67.57 0.73 15
10 01/22/2021 11:24:49 79.51, -94.35 112.14 01/22/2021 11:24:14 79.50, -94.44 112.19 2.07 35



Historial Predications of SNOs between AURA and NPP
